Miscellaneous Local Product
Issued by NWS Hastings, NE

Home | Current Version | Previous Version | Graphics & Text | Print | Product List | Glossary On
Versions: 1 2 3 4 5 6 7 8 9 10 11 12 13 14 15 16 17 18 19 20 21 22 23 24 25 26 27 28 29 30 31 32 33 34 35 36 37 38 39 40 41 42 43 44 45 46 47 48 49 50
599
AXUS43 KGID 212202
MISGRI

GID CWA HOURLY WEATHER ROUNDUP
NATIONAL WEATHER SERVICE HASTINGS NE
500 PM CDT THU SEP 21 2017

NOTE: "FAIR" INDICATES FEW OR NO CLOUDS BELOW 12,000 FEET WITH NO
SIGNIFICANT WEATHER AND/OR OBSTRUCTIONS TO VISIBILITY.

...SOUTH CENTRAL NEBRASKA...

CITY           SKY/WX    TMP DP  RH WIND       PRES   REMARKS
GRAND ISLAND   SUNNY     92  68  45 S22G30    29.68F HX  96
HASTINGS       SUNNY     95  61  32 S18G26    29.68F HX  95
KEARNEY        SUNNY     96  57  27 S25G31    29.65F HX  95
ORD            SUNNY     91  59  33 S18G31    29.64F HX  90
YORK           SUNNY     91  68  46 SE18G32   29.70F HX  95
AURORA         SUNNY     91  65  41 S23G30    29.69F HX  93
LEXINGTON      SUNNY     98  44  15 S18G26    29.64F HX  93
HOLDREGE       SUNNY     96  39  13 S23G35    29.65F HX  92
HEBRON         SUNNY     96  65  36 S15G26    29.70F HX  98

...NEBRASKA PANHANDLE...

CITY           SKY/WX    TMP DP  RH WIND       PRES   REMARKS
CHADRON        SUNNY     92  31  11 SE9       29.60F
ALLIANCE       SUNNY     85  41  21 SE13      29.67F
SCOTTSBLUFF    SUNNY     88  39  17 E20       29.64F
SIDNEY         SUNNY     90  31  12 SE8       29.68F

...WESTERN AND NORTH CENTRAL NEBRASKA...

CITY           SKY/WX    TMP DP  RH WIND       PRES   REMARKS
VALENTINE      SUNNY     90  49  24 S16       29.63F
AINSWORTH      SUNNY     89  55  31 S14       29.65F
ONEILL         SUNNY     90  60  36 S21G30    29.66F
BROKEN BOW     SUNNY     93  54  26 S18G26    29.65F HX  91
IMPERIAL       SUNNY     97  21   6 S21G31    29.61F HX  90
NORTH PLATTE   SUNNY     95  45  17 S15G23    29.62F HX  91
MCCOOK         LGT RAIN  99  37  11 S28G37    29.62F HX  94

...EASTERN NEBRASKA...

CITY           SKY/WX    TMP DP  RH WIND       PRES   REMARKS
NORFOLK        SUNNY     90  69  50 SE20G30   29.67F HX  94
SO SIOUX CITY  SUNNY     89  73  59 S20G29    29.69F HX  97
TEKAMAH        SUNNY     91  71  51 S17G26    29.70F HX  97
COLUMBUS       SUNNY     92  71  50 SE20G28   29.69F HX  98
ALBION         SUNNY     90  71  53 S22G32    29.68S HX  95
OMAHA EPPLEY   MOSUNNY   93  71  48 S23G33    29.72F HX 100
OFFUTT AFB     SUNNY     92  71  50 S26G32    29.72F HX  98
MILLARD        SUNNY     93  73  51 SE22      29.72F HX 102
LINCOLN        SUNNY     92  70  48 S23G37    29.71F HX  97
NEBRASKA CITY  MOSUNNY   90  73  57 S18G30    29.76F HX  98
BEATRICE       SUNNY     93  72  50 S22G32    29.73F HX 100
FALLS CITY     MOSUNNY   90  72  55 S17G29    29.78S HX  97

...NORTHERN KANSAS...

CITY           SKY/WX    TMP DP  RH WIND       PRES   REMARKS
GOODLAND       SUNNY     94  32  11 S21G31    29.67F
HILL CITY      SUNNY     99  42  14 S18G32    29.66F HX  94
NORTON         CLEAR     99  21   6 S16G33    29.63  HX  92
PHILLIPSBURG   SUNNY    100  39  12 S22G31    29.64F HX  95
SMITH CENTER   PTSUNNY   95  54  24 S22G32    29.67F HX  93
HAYS           SUNNY    100  44  14 S29G45    29.66F HX  96
RUSSELL        SUNNY     99  57  24 S30G39    29.67F HX  98
CONCORDIA      SUNNY     93  70  46 S21G35    29.70F HX  99
SALINA         SUNNY     99  67  35 S30G37    29.71F HX 103
TOPEKA         MOSUNNY   91  76  61 SE23G32   29.80F HX 103



USA.gov is the U.S. government's official web portal to all federal, state and local government web resources and services.